Flag for Bulgaria Weather past 2 weeks in Stara Zagora, Bulgaria

39 °F


Feels Like: 34 °F
Forecast: 25 / 50 °F
Wind: 7 mph from West

Location: Gorna Orechovista

Current Time: Nov 29, 2015 at 2:06:14 AM

Latest Report: Nov 29, 2015 at 1:30 AM

Visibility: N/A

Pressure: 29.95 "Hg

Humidity: 81%

Dew point: 34 °F

Location of Stara ZagoraLocation

Historic Weather in Stara Zagora — Graph


Stara Zagora temperature yesterday

Maximum temperature yesterday: 41 °F (at 12:00 AM)
Minimum temperature yesterday: 39 °F (at 4:30 AM)
Average temperature yesterday: 40 °F

Past Weeks' High & Low Weather Summary

High70 °F (Nov 20, 2:00 PM)100% (Nov 14, 12:30 AM)30.30 "Hg (Nov 14, 12:30 AM)
Low30 °F (Nov 20, 5:00 AM)29% (Nov 20, 2:30 PM)29.30 "Hg (Nov 22, 1:30 AM)
Average49 °F79%29.91 "Hg
* Reported Midnight between Nov 13 and Nov 14 — Midnight between Nov 28 and Nov 29, Stara Zagora, Weather by CustomWeather, © 2015

Note: Actual official high and low records may vary slightly from our data, if they occured in-between our weather recording intervals... More about our weather records


Stara Zagora weather history for previous 24 hours

Time TempWeatherWind HumidityBarometerVisibility
12:00 AM
Sun, Nov 29
41 °FOvercast.12 mph76%29.95 "HgN/A
11:30 PM
Sat, Nov 28
41 °FOvercast.8 mph81%29.92 "HgN/A
10:30 PM41 °FOvercast.9 mph81%29.92 "HgN/A
10:00 PM41 °FOvercast.9 mph81%29.92 "HgN/A
9:30 PM41 °FOvercast.9 mph81%29.92 "HgN/A
9:00 PM41 °FOvercast.7 mph81%29.89 "HgN/A
8:30 PM41 °FOvercast.5 mph87%29.89 "HgN/A
8:00 PM41 °FSprinkles. Mostly cloudy.7 mph81%29.89 "HgN/A
7:30 PM41 °FMostly cloudy.7 mph87%29.86 "HgN/A
7:00 PM41 °FLight rain. Mostly cloudy.9 mph87%29.86 "HgN/A
6:30 PM41 °FOvercast.8 mph87%29.83 "HgN/A
6:00 PM41 °FMostly cloudy.8 mph87%29.83 "HgN/A
5:30 PM41 °FOvercast.9 mph87%29.83 "HgN/A
5:00 PM41 °FMostly cloudy.9 mph87%29.83 "HgN/A
4:30 PM41 °FLight rain. Overcast.10 mph87%29.80 "HgN/A
4:00 PM41 °FMore clouds than sun.7 mph87%29.80 "HgN/A
3:30 PM41 °FSprinkles. Mostly cloudy.7 mph87%29.80 "HgN/A
3:00 PM41 °FSprinkles. Overcast.7 mph87%29.80 "HgN/A
2:30 PM41 °FSprinkles. Overcast.8 mph87%29.80 "HgN/A
2:00 PM39 °FLight rain. More clouds than sun.9 mph100%29.77 "HgN/A
1:30 PM39 °FLight rain. More clouds than sun.7 mph93%29.77 "HgN/A
1:00 PM39 °FLight rain. Low clouds.9 mph93%29.77 "HgN/A
12:30 PM39 °FLight rain. Low clouds.9 mph93%29.80 "HgN/A
12:00 PM39 °FLow clouds.9 mph93%29.80 "HgN/A
11:30 AM39 °FMostly cloudy.8 mph93%29.80 "HgN/A
11:00 AM41 °FMostly cloudy.7 mph93%29.80 "HgN/A
10:30 AM39 °FLow clouds.7 mph93%29.80 "HgN/A
10:00 AM39 °FCloudy.8 mph93%29.80 "HgN/A
8:30 AM39 °FLight rain. More clouds than sun.9 mph100%29.77 "HgN/A
8:00 AM39 °FHeavy rain. More clouds than sun.5 mph100%29.77 "HgN/A
7:30 AM39 °FMore clouds than sun.5 mph100%29.77 "HgN/A
7:00 AM39 °FMostly cloudy.7 mph100%29.77 "HgN/A
6:30 AM39 °FFog.8 mph100%29.77 "Hg4 mi
6:00 AM39 °FLow clouds.7 mph100%29.77 "Hg6 mi
5:30 AM39 °FFog.6 mph100%29.74 "Hg4 mi
5:00 AM39 °FFog.9 mph100%29.74 "Hg2 mi
4:30 AM39 °FFog.8 mph100%29.74 "Hg1 mi
4:00 AM41 °FLow clouds.12 mph93%29.74 "HgN/A
3:30 AM41 °FLow clouds.13 mph100%29.74 "HgN/A
2:00 AM41 °FPassing clouds.13 mph100%29.74 "HgN/A
Weather by CustomWeather, © 2015

See weather overviewHow to use our weather pages